Regional Weather Roundup
Issued by NWS

Home | Current Version | Previous Version | Graphics & Text | Print | Product List | Glossary On
Versions: 1 2 3 4 5 6 7 8 9 10 11 12 13 14 15 16 17 18 19 20 21 22 23 24 25 26 27 28 29 30 31 32 33 34 35 36 37 38 39 40 41 42 43 44 45 46 47 48 49 50
000
ASUS43 KMKX 291800
RWRWI

WISCONSIN REGIONAL WEATHER ROUNDUP
NATIONAL WEATHER SERVICE MILWAUKEE/SULLIVAN WI
100 PM CDT TUE JUL 29 2014

NOTE: "FAIR" INDICATES FEW OR NO CLOUDS BELOW 12,000 FEET WITH NO
SIGNIFICANT WEATHER AND/OR OBSTRUCTIONS TO VISIBILITY.

WIZ001-002-006>008-014>016-023>028-291900-
NORTHWEST WISCONSIN

CITY           SKY/WX    TMP DP  RH WIND       PRES   REMARKS
SUPERIOR ARPT  LGT RAIN  67  54  63 N5        30.05F
ASHLAND        PTSUNNY   75  60  59 VRB6      30.03F
6HR MIN TEMP:  58; 6HR MAX TEMP:  75;

HAYWARD        MOSUNNY   75  58  55 VRB7      30.06F
6HR MIN TEMP:  54; 6HR MAX TEMP:  75;

SIREN          PTSUNNY   76  54  46 NW9       30.08F
RICE LAKE      CLOUDY    72  58  61 NW5       30.09F
LADYSMITH      MOSUNNY   75  56  52 W9        30.07F
EAU CLAIRE     NOT AVBL
MENOMONIE      CLEAR     79  55  44 NW12G20   30.08F
NEW RICHMOND   MOSUNNY   76  57  51 W9        30.10F
OSCEOLA        MOSUNNY   76  59  55 W8G16     30.12F
$$

WIZ003>005-009-010-017-018-291900-
NORTH CENTRAL WISCONSIN

CITY           SKY/WX    TMP DP  RH WIND       PRES   REMARKS
WOODRUFF       MOSUNNY   72  56  57 N9        30.04F
RHINELANDER    MOSUNNY   71  55  56 W8        30.04F
6HR MIN TEMP:  54; 6HR MAX TEMP:  72;

EAGLE RIVER    MOSUNNY   69  51  52 W9        30.03F
LAND O LAKES   PTSUNNY   69  53  56 NW5       30.03F
PHILLIPS       CLOUDY    70  56  61 W5        30.05F
TOMAHAWK       MOSUNNY   69  55  59 NW5G16    30.05F
MEDFORD        MOSUNNY   70  56  60 NW9       30.06F
MERRILL        PTSUNNY   71  56  59 NW10      30.04F
$$

WIZ029-030-035-036-043>047-291900-
CENTRAL WISCONSIN

CITY           SKY/WX    TMP DP  RH WIND       PRES   REMARKS
WAUSAU         MOSUNNY   74  54  49 NW13G22   30.03F
6HR MIN TEMP:  57; 6HR MAX TEMP:  75;

MOSINEE        MOSUNNY   73  55  53 NW8       30.06F
MARSHFIELD     MOSUNNY   75  53  46 W9        30.05F
6HR MIN TEMP:  58; 6HR MAX TEMP:  76;

STEVENS POINT  MOSUNNY   73  52  48 NW6       30.04F
WAUPACA        MOSUNNY   76  52  43 NW8       30.03S
WAUTOMA        NOT AVBL
WISC RAPIDS    MOSUNNY   77  52  41 N13       30.06F
6HR MIN TEMP:  57; 6HR MAX TEMP:  78;

CAMP DOUGLAS   NOT AVBL
$$

WIZ011>013-019>022-031-037>040-048>050-291900-
NORTHEAST WISCONSIN

CITY           SKY/WX    TMP DP  RH WIND       PRES   REMARKS
ANTIGO         PTSUNNY   69  56  62 NW10      30.04F
STURGEON BAY   PTSUNNY   68  55  64 W7        29.99F
6HR MIN TEMP:  59; 6HR MAX TEMP:  68;

GREEN BAY      MOSUNNY   75  57  53 W10       29.99F
6HR MIN TEMP:  59; 6HR MAX TEMP:  76;

MANITOWOC      NOT AVBL
APPLETON       PTSUNNY   72  54  53 W10       30.03S
CLINTONVILLE   MOSUNNY   73  52  46 NW8       30.01F
OSHKOSH        MOSUNNY   75  55  49 W13G20    30.01F
6HR MIN TEMP:  59; 6HR MAX TEMP:  75;

$$

WIZ032>034-041-042-053>061-291900-
SOUTHWEST WISCONSIN

CITY           SKY/WX    TMP DP  RH WIND       PRES   REMARKS
LA CROSSE      SUNNY     80  57  45 NW10      30.06F HX  80
6HR MIN TEMP:  59; 6HR MAX TEMP:  80;

SPARTA         SUNNY     76  53  45 NW9       30.08F
VIROQUA        FAIR      74  57  55 NW12      30.09F
BOSCOBEL       MOSUNNY   81  56  42 NW12      30.07F HX  81
6HR MIN TEMP:  56; 6HR MAX TEMP:  82;

PRAIRIE DU CHI MOSUNNY   77  50  37 NW10      30.08F
PLATTEVILLE    FAIR      76  55  47 NW12G17   30.08F
$$

WIZ056-057-062-063-064-067-068-291900-
SOUTH CENTRAL WISCONSIN

CITY           SKY/WX    TMP DP  RH WIND       PRES   REMARKS
BARABOO/DELLS  SUNNY     77  48  35 NW13      30.06F
LONE ROCK      NOT AVBL
WATERTOWN      SUNNY     73  54  51 NW12      30.03F
MADISON        MOSUNNY   77  54  44 W7        30.04F
6HR MIN TEMP:  60; 6HR MAX TEMP:  77;

MIDDLETON      FAIR      76  52  43 NW10      30.05F
MONROE         MOSUNNY   75  55  50 W12G17    30.06F
JANESVILLE     NOT AVBL
$$

WIZ051-052-058>065-066-070>072-291900-
SOUTHEAST WISCONSIN

CITY           SKY/WX    TMP DP  RH WIND       PRES   REMARKS
MILWAUKEE      MOSUNNY   76  53  44 NW12      30.01F
6HR MIN TEMP:  62; 6HR MAX TEMP:  76;

WAUKESHA       MOSUNNY   73  52  46 W8        30.04F
MILWAUKEE/TIMM NOT AVBL
RACINE         PTSUNNY   72  58  61 SE7       30.03F
6HR MIN TEMP:  61; 6HR MAX TEMP:  76;

BURLINGTON     SUNNY     73  53  49 NW14      30.03F
KENOSHA        MOSUNNY   75  56  51 NW12      30.02F
6HR MIN TEMP:  59; 6HR MAX TEMP:  76;

FOND DU LAC    MOSUNNY   75  54  47 NW13      30.02F
6HR MIN TEMP:  58; 6HR MAX TEMP:  75;

SHEBOYGAN      MOSUNNY   74  56  53 W8        30.00F
6HR MIN TEMP:  59; 6HR MAX TEMP:  74;

WEST BEND      SUNNY     72  52  49 NW10G16   30.02F
JUNEAU         SUNNY     72  48  42 NW10      30.04F
$$

LSZ147-162-291900-
LAKE SUPERIOR

STATION/POSITION TIME  TEMP    WIND        PRES    WAVE
                       AIR SEA DIR/SP/G            HT/PER
                 (UTC) (F)     (DEG/KT/KT) (MB)    (FT/S)
W MID LAKE BUOY  1650   50 43  260/  6/  8 1016.9R   1
PORT WING        1700   70     240/  8/ 12 1016.9F
SAXON HARBOR     1700          330/  3/  5 1016.9F
$$

LMZ867-665-643>646-291900-
LAKE MICHIGAN

STATION/POSITION TIME  TEMP    WIND        PRES    WAVE
                       AIR SEA DIR/SP/G            HT/PER
                 (UTC) (F)     (DEG/KT/KT) (MB)    (FT/S)
N MID LAKE BUOY  1650   57 55  270/  6/  6 1014.9R   1
NORTHPORT PIER   1700   64     340/  5/  8 1015.2F
SISTER BAY       1740   70     300/  5/  6   N/A
KEWAUNEE LAKESHO 1700   71     270/  8/ 11 1016.5F
SHEBOYGAN LAKESH 1700   68      80/  5/  6 1016.2F
PORT WASHINGTON  1700   67      90/  6/  8 1016.9
ATWATER BUOY     1700   68     320/  6     1017.6F
MILWAUKEE LAKESH 1700   71     340/  9/ 12   N/A
S MID LAKE BUOY  1750   61 61  300/  6/  6 1017.0F   1
KENOSHA   LAKESH 1700   71     340/ 11/ 15 1016.3F
$$

TC  - TEMPERATURE IN CELSIUS
VSB - VISIBILITY IN STATUTE MILES
WCI - WIND CHILL INDEX
HX  - HEAT INDEX



USA.gov is the U.S. government's official web portal to all federal, state and local government web resources and services.